Laman API Video Percuma Terbaik

AVDBAPI.COM

Cari katalog, semak rekod, dan salin URL API bersih daripada papan pemuka pantas.

Telegram Join Our Telegram Community for Updates!
Today
0
Kemaskini Hari Ini
Censored
314141
Censored Videos
Total
474352
Total Videos

Senarai Video

Rekod terkini disusun mengikut masa kemas kini.

ID Nama CODE Kategori Dikemaskini API
271290 111617-174 Mak Cik Seksi ~ Wanita Berkahwin Tempatan ~ 111617-174 Tanpa sensor 2025-08-29 21:33:20 API
271289 K1284 Wanita Mangsa K1284 Tanpa sensor 2025-08-29 21:33:10 API
271288 H0930-KI181218 Ran Kato Wanita Matang 39 Tahun H0930-KI181218 Tanpa sensor 2025-08-29 21:33:00 API
271285 C0930-KI180813 Yukie Hiroi, Gadis 21 Tahun C0930-KI180813 Tanpa sensor 2025-08-29 21:32:30 API
271284 051419-919 Isteri jiran yang memang sudah mahu dari awal ~ Menggoda dengan alasan mahu pinjam bilik mandi ~ Saori Okumura 051419-919 Tanpa sensor 2025-08-29 21:32:20 API
271283 FC2-PPV-1358425 Adik perempuan tukang gunting rambut yang agak sadis menyalahkan saya dan pancut dalam diri saya FC2-PPV-1358425 Tanpa sensor 2025-08-29 21:32:10 API
271282 051018-01 Era Seragam ~ Pertama Kali Onani Memakai Seragam ~ 051018-01 Tanpa sensor 2025-08-29 21:32:00 API
271281 H0930-KI181220 Miyuki Nakazawa Wanita Seksi Berusia 35 Tahun H0930-KI181220 Tanpa sensor 2025-08-29 21:31:50 API
271280 HEYZO-1981 Bukkake ke arah wanita matang yang cantik HITOMI! HEYZO-1981 Tanpa sensor 2025-08-29 21:31:40 API
271279 H4610-KI191027 Wanita Cantik Mai Sakura Berusia 27 Tahun H4610-KI191027 Tanpa sensor 2025-08-29 21:31:30 API
271278 K1283 Wanita Mangsa K1283 Tanpa sensor 2025-08-29 21:31:20 API
271277 111817-175 Latihan Anal Isteri Orang 111817-175 Tanpa sensor 2025-08-29 21:31:10 API
271276 020117_475 Jom kungfu dewi anda, bunyi hujan bersama Wakana 020117_475 Tanpa sensor 2025-08-29 21:31:00 API
271275 FC2-PPV-1353147 Seks Harem dengan gadis polos dan gadis kacukan Jepun yang menggoda [Rakaman Peribadi] [Ya] FC2-PPV-1353147 Tanpa sensor 2025-08-29 21:30:50 API
271274 051218-01 Aku memanggilnya seperti sekeping pizza yang lazat 051218-01 Tanpa sensor 2025-08-29 21:30:40 API
271273 H4610-KI191029 Akina Koizumi, gadis 21 tahun yang menggoda H4610-KI191029 Tanpa sensor 2025-08-29 21:30:30 API
271272 112117-176 Punggung Seksi Berrompi 112117-176 Tanpa sensor 2025-08-29 21:30:20 API
271271 051519-920 Buku Gambar Puki Nanami Yui 051519-920 Tanpa sensor 2025-08-29 21:30:10 API
271270 C0930-KI180814 Sasahara Yoshino Wanita Matang Berusia 39 Tahun C0930-KI180814 Tanpa sensor 2025-08-29 21:30:00 API
271268 FC2-PPV-1308140 [Rakaman Peribadi] Pekerja Kedai Pakaian Rùo-chan 20 thn & Mahasiswi Ka-chan 20 thn Kali Pertama (3P) Festival Pancutan pada Dua Payudara Besar! FC2-PPV-1308140 Tanpa sensor 2025-08-29 21:29:40 API
271266 HEYZO-1982 Saya suka puting! Perempuan lurah Anri HEYZO-1982 Tanpa sensor 2025-08-29 21:29:20 API
271265 051619-001 Rahsia Tersembunyi ~ Saya suka mengisap secara sembunyi-sembunyi di tandas peribadi ~ Minako Komukai 051619-001 Tanpa sensor 2025-08-29 21:29:10 API
271264 H0930-PLA0098 Mitsuno Matsuda Wanita Matang 39 Tahun H0930-PLA0098 Tanpa sensor 2025-08-29 21:29:00 API
271263 H4610-KI191031 Yoko Higashi, Gadis 21 Tahun H4610-KI191031 Tanpa sensor 2025-08-29 21:28:50 API
271262 051719-921 Menjaga Mizuki Angelia ~ Kehidupan Hamba Seks yang Dihukum Kerana Kepatuhan ~ Mizuki Angelia 051719-921 Tanpa sensor 2025-08-29 21:28:40 API
271261 112317-177 Isteri Orang Jadi Santapan di Rumah ~ Isteri Menggoda Yang Mengundang ~ 112317-177 Tanpa sensor 2025-08-29 21:28:30 API
271260 HEYZO-1983 Biar aku bagi kau puas-puas! HEYZO-1983 Tanpa sensor 2025-08-29 21:28:20 API
271259 020317_476 Serang Jiran Sebelah! Mari Koizumi 020317_476 Tanpa sensor 2025-08-29 21:28:10 API
271258 051518-01 Tuan! Tolong sentuh ia dengan cepat 051518-01 Tanpa sensor 2025-08-29 21:28:00 API
271257 C0930-KI180818 Gadis 20 Tahun Dengan Fetish Kencing C0930-KI180818 Tanpa sensor 2025-08-29 21:27:50 API
271256 K1285 Wanita Mangsa K1285 Tanpa sensor 2025-08-29 21:27:40 API
271255 FC2-PPV-1327117 [Foto Individu] Pelajar baru berbaju seragam lama, menangis semasa kena lenyek dengan kote tua tanpa kondom sebelum upacara kemasukan FC2-PPV-1327117 Tanpa sensor 2025-08-29 21:27:30 API
271254 051819-922 Serina Fukami 051819-922 Tanpa sensor 2025-08-29 21:27:20 API
271253 H0930-KI181222 Koleksi Video Permintaan Khas H0930-KI181222 Tanpa sensor 2025-08-29 21:27:10 API
271252 C0930-KI180819 Ayaka Sato Wanita Cantik Berusia 28 Tahun C0930-KI180819 Tanpa sensor 2025-08-29 21:27:00 API
271251 H4610-TK0009 Gadis Seksi 22 Tahun Riri Kishida H4610-TK0009 Tanpa sensor 2025-08-29 21:26:50 API
271250 FC2-PPV-1298782 Minum di rumah dengan rakan sekerja junior dan berakhir dengan orgi 3P [6 kali orgasme berturut-turut] [Puki sangat ghairah] FC2-PPV-1298782 Tanpa sensor 2025-08-29 21:26:40 API
271249 051718-01 Era Seragam ~ Saya sedang onani di tandas sekolah ~ 051718-01 Tanpa sensor 2025-08-29 21:26:30 API
271248 020417 Koleksi Model Seksi Momoki Nozomi 020417_477 Tanpa sensor 2025-08-29 21:26:20 API
271247 H4610-KI191103 Tomomi Akai, gadis hot berumur 20 tahun H4610-KI191103 Tanpa sensor 2025-08-29 21:26:10 API
271246 112517-178 Isteri Orang Telan Mani 62 ~ Bukan Sekadar Dalam Mulut ~ 112517-178 Tanpa sensor 2025-08-29 21:26:00 API
271245 HEYZO-1985 Saya mahu rasa lebih lagi! -Saya mahu awak buat sambil kita saling merenung mata- HEYZO-1985 Tanpa sensor 2025-08-29 21:25:50 API
271243 H0930-KI181225 Wanita Seksi 33 Tahun Atsuko Kobashi H0930-KI181225 Tanpa sensor 2025-08-29 21:25:30 API
271242 K1287 Wanita Mangsa K1287 Tanpa sensor 2025-08-29 21:25:20 API
271241 052119-923 Saya mahu awak cium saya ~ Saya merasainya dengan bibir saya ~ Yusa Minami 052119-923 Tanpa sensor 2025-08-29 21:25:10 API
271240 C0930-KI180820 Wanita Seksi 32 Tahun Yoko Maehara C0930-KI180820 Tanpa sensor 2025-08-29 21:25:00 API
271239 051918-01 Saya membawa pulang anak perempuan saya yang ketinggalan kereta terakhir 051918-01 Tanpa sensor 2025-08-29 21:24:50 API
271238 H4610-KI191102 Gold Pack: Gadis 20 Tahun Yang Menggiurkan H4610-KI191102 Tanpa sensor 2025-08-29 21:24:40 API
271237 112817-179 Sifat Lucah Isteri Berwajah Babyface Semasa Di Rumah 112817-179 Tanpa sensor 2025-08-29 21:24:30 API
271236 H0930-KI190105 Video Selfie Masturbasi Yang Menggiurkan H0930-KI190105 Tanpa sensor 2025-08-29 21:24:20 API